Regional Weather Roundup
Issued by NWS

Home | Current Version | Previous Version | Text Only | Print | Product List | Glossary On
Versions: 1 2 3 4 5 6 7 8 9 10 11 12 13 14 15 16 17 18 19 20 21 22 23 24 25 26 27 28 29 30 31 32 33 34 35 36 37 38 39 40 41 42 43 44 45 46 47 48 49 50
000
ASUS43 KMKX 280920
RWRWI

WISCONSIN REGIONAL WEATHER ROUNDUP
NATIONAL WEATHER SERVICE MILWAUKEE/SULLIVAN WI
300 AM CST SAT FEB 28 2015

NOTE: "FAIR" INDICATES FEW OR NO CLOUDS BELOW 12,000 FEET WITH NO
SIGNIFICANT WEATHER AND/OR OBSTRUCTIONS TO VISIBILITY.

WIZ001-002-006>008-014>016-023>028-281000-
NORTHWEST WISCONSIN

CITY           SKY/WX    TMP DP  RH WIND       PRES   REMARKS
SUPERIOR ARPT  CLEAR      1  -5  73 W5        30.49S WCI  -8
ASHLAND        CLEAR      1  -5  75 S8        30.49S WCI -13
HAYWARD        CLEAR    -10 -17  71 SW3       30.47F
SIREN          CLEAR     -1  -6  81 S5        30.50S WCI -12
CUMBERLAND     CLEAR     -6  -9  84 CALM      30.48F
RICE LAKE      CLEAR     -6 -10  82 CALM      30.52F
CHETEK         CLEAR     -9 -13  83 CALM      30.52F
LADYSMITH      CLEAR     -5  -9  81 SE3       30.52S
EAU CLAIRE     CLEAR     -3  -9  75 CALM      30.55S
MENOMONIE      CLEAR     -1  -6  81 SE3       30.54F
NEW RICHMOND   CLEAR     -4  -8  84 S6        30.51F WCI -16
OSCEOLA        CLEAR     -1  -5  84 S6        30.54F WCI -13
$$

WIZ003>005-009-010-017-018-281000-
NORTH CENTRAL WISCONSIN

CITY           SKY/WX    TMP DP  RH WIND       PRES   REMARKS
MANITOWISH WTR CLEAR    -12 -16  82 CALM      30.43S
ARBOR VITAE    CLEAR     -9 -15  74 CALM      30.44S
WOODRUFF       CLEAR     -9 -15  74 CALM      30.44S
RHINELANDER    PTCLDY    -6  -9  86 SW3       30.45S
EAGLE RIVER    PTCLDY   -10 -16  77 CALM      30.43S
LAND O LAKES   CLEAR    -13 -19  76 SW5       30.42F WCI -26
PHILLIPS       CLEAR    -10 -13  83 CALM      30.46S
TOMAHAWK       PTCLDY   -15 -20  78 CALM      30.48S
MEDFORD        PTCLDY    -3  -7  84 SW3       30.48S
MERRILL        PTCLDY   -16 -21  75 CALM      30.50S
$$

WIZ029-030-035-036-043>047-281000-
CENTRAL WISCONSIN

CITY           SKY/WX    TMP DP  RH WIND       PRES   REMARKS
WAUSAU         PTCLDY    -2  -7  79 CALM      30.51S
MOSINEE        PTCLDY    -2  -8  78 SW5       30.53S WCI -12
MARSHFIELD     PTCLDY    -3  -9  75 W5        30.52F WCI -13
STEVENS POINT  PTCLDY    -1  -8  72 W3        30.55F
WAUPACA        CLEAR      1  -8  67 CALM      30.59S
WAUTOMA        CLEAR     -9 -14  78 CALM      30.59F
WISC RAPIDS    CLEAR     -7 -12  79 CALM      30.57F
CAMP DOUGLAS   CLEAR     -6 -11  80 S1        30.58S
$$

WIZ011>013-019>022-031-037>040-048>050-281000-
NORTHEAST WISCONSIN

CITY           SKY/WX    TMP DP  RH WIND       PRES   REMARKS
ANTIGO         PTCLDY    -5  -9  82 W6        30.48S WCI -18
SHAWANO        CLEAR      4  -6  64 CALM      30.57S
OCONTO         CLEAR      3  -6  66 W5        30.57S WCI  -7
STURGEON BAY   CLEAR      5  -8  56 W7        30.58S WCI  -7
GREEN BAY      CLEAR      3  -5  69 SW6       30.59S WCI  -8
MANITOWOC      CLEAR      5  -3  69 W9        30.60S WCI  -9
APPLETON       CLEAR      3  -8  60 SW7       30.57S WCI  -9
CLINTONVILLE   CLEAR      3  -8  60 SW3       30.57S
OSHKOSH        CLEAR      3  -6  66 W5        30.58F WCI  -6
$$

WIZ032>034-041-042-053>061-281000-
SOUTHWEST WISCONSIN

CITY           SKY/WX    TMP DP  RH WIND       PRES   REMARKS
LA CROSSE      CLEAR     -5 -10  79 SE3       30.61F
SPARTA         CLEAR    -12 -18  77 CALM      30.60S
VIROQUA        CLEAR     -5  -8  85 SW3       30.54S
BOSCOBEL       PTCLDY   -13 -20  71 CALM      30.64F
PRAIRIE DU CHI MOCLDY   -10 -16  75 CALM      30.64S
PLATTEVILLE    MOCLDY    -5  -9  84 CALM      30.59F
$$

WIZ056-057-062-063-064-067-068-281000-
SOUTH CENTRAL WISCONSIN

CITY           SKY/WX    TMP DP  RH WIND       PRES   REMARKS
REEDSBURG      CLEAR     -1  -7  74 CALM      30.59S
BARABOO/DELLS  CLEAR     -2  -8  74 CALM      30.58S
LONE ROCK      CLEAR    -13 -19  75 CALM      30.63F
MINERAL POINT  PTCLDY     0  -6  78 SW3       30.57F
MADISON        CLEAR     -3 -10  72 CALM      30.61S
MIDDLETON      CLEAR     -4 -12  71 SW3       30.60F
WATERTOWN      CLEAR     -3  -9  75 CALM      30.61S
MONROE         FAIR       0  -6  78 SW3       30.58F
JANESVILLE     PTCLDY    -6 -11  77 CALM      30.63S
$$

WIZ051-052-058>065-066-070>072-281000-
SOUTHEAST WISCONSIN

CITY           SKY/WX    TMP DP  RH WIND       PRES   REMARKS
MILWAUKEE      CLEAR      2  -8  63 SW6       30.64S WCI  -9
WAUKESHA       CLEAR      0  -8  71 SW5       30.62F WCI -10
MILWAUKEE/TIMM CLEAR      1  -8  66 SW5       30.64S WCI  -8
RACINE         PTCLDY    -1  -9  68 SW5       30.66S WCI -11
BURLINGTON     PTCLDY   -11 -15  83 CALM      30.63F
KENOSHA        PTCLDY    -8 -13  78 W5        30.64F WCI -19
FOND DU LAC    CLEAR      1  -7  68 SW6       30.60S WCI -10
SHEBOYGAN      CLEAR      2  -7  66 SW5       30.60F WCI  -8
WEST BEND      CLEAR      3  -8  60 W5        30.59F WCI  -6
JUNEAU         CLEAR     -2  -8  76 S6        30.61S WCI -14
$$

LSZ147-162-281000-
LAKE SUPERIOR

STATION/POSITION TIME  TEMP    WIND        PRES    WAVE
                       AIR SEA DIR/SP/G            HT/PER
                 (UTC) (F)     (DEG/KT/KT) (MB)    (FT/S)
DEVILS ISLAND    0900    9     220/ 14/ 18 1033.3R
PORT WING        0840    6     200/  7/ 13 1032.2S
SAXON HARBOR     0840    6     190/  6/ 10 1032.5S
$$

LMZ867-665-643>646-281000-
LAKE MICHIGAN

STATION/POSITION TIME  TEMP    WIND        PRES    WAVE
                       AIR SEA DIR/SP/G            HT/PER
                 (UTC) (F)     (DEG/KT/KT) (MB)    (FT/S)
NORTHPORT PIER   0836    8     240/  4/ 10 1034.5R
SISTER BAY       0843    6     260/  9/ 10   N/A
KEWAUNEE LAKESHO 0800    6     290/  4/  8 1034.6R
SHEBOYGAN LAKESH 0900    6     260/ 13/ 15 1038.0F
PORT WASHINGTON  0800    6     260/  7/  9 1037.6S
MILWAUKEE LAKESH 0900    6     260/ 11/ 14   N/A
KENOSHA   LAKESH 0900    2     240/  2/  6 1037.6F
$$

TC  - TEMPERATURE IN CELSIUS
VSB - VISIBILITY IN STATUTE MILES
WCI - WIND CHILL INDEX
HX  - HEAT INDEX




USA.gov is the U.S. government's official web portal to all federal, state and local government web resources and services.